Regional Weather Roundup
Issued by NWS

Home | Current Version | Previous Version | Graphics & Text | Print | Product List | Glossary Off
Versions: 1 2 3 4 5 6 7 8 9 10 11 12 13 14 15 16 17 18 19 20 21 22 23 24 25 26 27 28 29 30 31 32 33 34 35 36 37 38 39 40 41 42 43 44 45 46 47 48 49 50

000
ASUS43 KFSD 271610
RWRSD

WEATHER ROUNDUP FOR SOUTH DAKOTA
NATIONAL WEATHER SERVICE SIOUX FALLS SD
1100 AM CDT SAT AUG 27 2016

NOTE: "FAIR" INDICATES FEW OR NO CLOUDS BELOW 12,000 FEET WITH NO
SIGNIFICANT WEATHER AND/OR OBSTRUCTIONS TO VISIBILITY.


SDZ001>005-009-010-012>017-271700-
NORTHWEST AND NORTH CENTRAL SOUTH DAKOTA

CITY           SKY/WX    TMP DP  RH WIND       PRES   REMARKS
BUFFALO          N/A     67  54  63 S6        29.90F
FAITH            N/A     69  54  58 SW9       29.96F
MOBRIDGE       SUNNY     69  58  67 SW6       29.93F
$$

SDZ012>016-024>037-041>051-057-063-072>074-271700-
SOUTHWEST AND SOUTH CENTRAL SOUTH DAKOTA

CITY           SKY/WX    TMP DP  RH WIND       PRES   REMARKS
RAPID CTY ARPT SUNNY     67  53  61 S15       29.98F
PIERRE         SUNNY     69  55  60 SW6       29.95S
CUSTER         SUNNY     64  48  56 VRB5      30.08F
ELLSWORTH AFB  SUNNY     68  54  60 S9        29.97F
PHILIP         SUNNY     68  54  60 CALM      29.97F
PINE RIDGE     MOSUNNY   63  59  87 S13       30.03F
WINNER         FAIR      72  57  59 S8        29.98F
$$

SDZ004>011-016>023-039-040-271700-
NORTHEAST SOUTH DAKOTA

CITY           SKY/WX    TMP DP  RH WIND       PRES   REMARKS
ABERDEEN       CLOUDY    65  60  84 S14       29.97F
WATERTOWN      CLOUDY    65  58  78 S10       30.01F
BROOKINGS      CLOUDY    62  59  90 SE6       30.02S
SISSETON         N/A     70  60  70 S13G20    29.98F
$$

SDZ017-020-022-023-036>040-048>070-271700-
SOUTHEAST SOUTH DAKOTA

CITY           SKY/WX    TMP DP  RH WIND       PRES   REMARKS
SIOUX FALLS    CLOUDY    66  63  90 CALM      30.02S
HURON          CLOUDY    66  60  81 S12       29.98F
CHAMBERLAIN    SUNNY     71  61  69 SW5       29.98S
MITCHELL       MOSUNNY   69  61  75 VRB6      30.00F
YANKTON        MOSUNNY   70  59  68 SW5       30.00F
$$

ABBREVIATIONS USED IN REMARKS
   TC - TEMPERATURE IN CELSIUS
  WCI - WIND CHILL INDEX
   HX - HEAT INDEX
  VSB - VISIBILITY





USA.gov is the U.S. government's official web portal to all federal, state and local government web resources and services.